Regional Weather Roundup
Issued by NWS

Home | Current Version | Previous Version | Graphics & Text | Print | Product List | Glossary On
Versions: 1 2 3 4 5 6 7 8 9 10 11 12 13 14 15 16 17 18 19 20 21 22 23 24 25 26 27 28 29 30 31 32 33 34 35 36 37 38 39 40 41 42 43 44 45 46 47 48 49 50
000
ASUS43 KOAX 051002
RWRNE

WEATHER ROUNDUP FOR NEBRASKA
NATIONAL WEATHER SERVICE OMAHA NE
400 AM CST THU MAR 05 2015

NOTES: SATELLITE DATA IS BEING USED TO AUGMENT CLOUD COVER ABOVE
       12000 FEET.
       "FAIR" INDICATES FEW OR NO CLOUDS BELOW 12,000 FEET WITH NO
       SIGNIFICANT WEATHER AND/OR OBSTRUCTIONS TO VISIBILITY.

  * THESE STATIONS DO NOT REPORT WEATHER SUCH AS RAIN...SNOW OR FOG.

NEZ001>004-019>022-054>056-051100-
NEBRASKA PANHANDLE

CITY           SKY/WX    TMP DP  RH WIND       PRES   REMARKS
SCOTTSBLUFF    PTCLDY     5   0  79 N6        30.20F WCI  -6
ALLIANCE       PTCLDY     1  -4  79 CALM      30.18F
CHADRON        PTCLDY    -6 -11  79 CALM      30.22F
KIMBALL        CLEAR     10   6  82 SW7       30.15F WCI   0
SIDNEY         CLEAR      8   3  80 W9        30.19F WCI  -5
$$

NEZ057>060-069>072-079>082-051100-
SOUTHWEST NEBRASKA

CITY           SKY/WX    TMP DP  RH WIND       PRES   REMARKS
NORTH PLATTE   CLEAR      2  -4  76 E5        30.31F WCI  -8
IMPERIAL         N/A      6   1  80 CALM      30.27F
LEXINGTON      CLEAR      4  -1  81 CALM      30.36F
MCCOOK         CLEAR     11   2  67 CALM      30.34F
$$

NEZ005>010-023>029-035>040-094-051100-
NORTH CENTRAL NEBRASKA

CITY           SKY/WX    TMP DP  RH WIND       PRES   REMARKS
VALENTINE      PTCLDY    -2  -7  79 SW7       30.29F WCI -15
AINSWORTH      CLEAR      4  -2  78 SW8       30.30F WCI -10
BROKEN BOW     CLEAR     -2  -7  79 CALM      30.34F
ORD            CLEAR     -2  -8  76 SW5       30.38F WCI -12
$$

NEZ041-046>049-061>064-073>077-083>087-051100-
SOUTH CENTRAL NEBRASKA

CITY           SKY/WX    TMP DP  RH WIND       PRES   REMARKS
GRAND ISLAND   CLEAR      4  -2  76 CALM      30.43F
HASTINGS       CLEAR      5  -3  69 CALM      30.40F
HEBRON         CLEAR      6   0  75 CALM      30.47S
KEARNEY *      CLEAR      3   0  85 CALM      30.39F
$$

NEZ011>018-030>034-042>045-051100-
NORTHEAST NEBRASKA

CITY           SKY/WX    TMP DP  RH WIND       PRES   REMARKS
NORFOLK        CLEAR     -3  -9  75 CALM      30.43S
BLAIR          CLEAR      5  -4  67 CALM      30.45F
COLUMBUS *     CLEAR      1 -13  51 CALM      30.46S
FREMONT        CLEAR      2  -4  75 W5        30.48S WCI  -8
TEKAMAH        CLEAR      0  -6  76 W3        30.50S
$$

NEZ050>053-065>068-078-088>093-051100-
SOUTHEAST NEBRASKA

CITY           SKY/WX    TMP DP  RH WIND       PRES   REMARKS
LINCOLN        CLEAR      0  -7  72 N3        30.50S
OMAHA EPPLEY   CLEAR      6  -3  66 CALM      30.50F
FALLS CITY     CLEAR      6  -3  66 NW5       30.50S WCI  -3
$$

NEZ044-045-051>053-067-051100-
OMAHA AREA

CITY           SKY/WX    TMP DP  RH WIND       PRES   REMARKS
OMAHA EPPLEY   CLEAR      6  -3  66 CALM      30.50F
BLAIR          CLEAR      5  -4  67 CALM      30.45F
FREMONT        CLEAR      2  -4  75 W5        30.48S WCI  -8
OFFUTT AFB     CLEAR      2  -4  76 CALM      30.49S
$$


USA.gov is the U.S. government's official web portal to all federal, state and local government web resources and services.